Location: Fosso Corella
(43.9167°N, 11.5667°E)
Time: 15:58:59
(UTC+00:00)

ADEOS II - Pass Details

Date: 07 June 2020
Orbit: 800 x 800 km, 98.5° (Epoch: 11 July)

Event Time Altitude Azimuth Distance (km) Brightness Sun altitude
Rises 02:43:26 0° 3° (N) 3,319 6.1 -7.7°
Reaches altitude 10° 02:46:03 10° 353° (N) 2,385 5.1 -7.3°
Maximum altitude 02:50:28 28° 295° (WNW) 1,458 3.3 -6.7°
Drops below altitude 10° 02:54:53 10° 238° (WSW) 2,371 3.9 -6.1°
Enters shadow 02:55:35 - 234° (SW) 2,613 4.1 -6.0°
